Regional Weather Roundup
Issued by NWS Wakefield, VA

Home | Current Version | Previous Version | Text Only | Print | Product List | Glossary On
Versions: 1 2 3 4 5 6 7 8 9 10 11 12 13 14 15 16 17 18 19 20 21 22 23 24 25 26 27
000
ASUS41 KAKQ 310115
RWRAKQ

REGIONAL WEATHER ROUNDUP
NATIONAL WEATHER SERVICE WAKEFIELD VA
900 PM EDT THU MAR 30 2017

Note: "fair" indicates few or no clouds below 12,000 feet with no
significant weather and/or obstructions to visibility. * = Denotes
station may not report precipitation (e.g., rain,snow,etc.),
thunder or fog.

VAZ042-051-052>054-056-310200-
NORTHERN VIRGINIA

CITY           SKY/WX    TMP DP  RH WIND       PRES   REMARKS
WASH NATIONAL  CLOUDY    51  40  65 S12       30.09R
DULLES         CLOUDY    51  40  65 SE8       30.05R
FORT BELVOIR   CLOUDY    51  39  65 SE8       30.08R
QUANTICO       CLOUDY    50  44  80 SE14      30.09R
FREDERICKSBRG* CLOUDY    52  44  73 SE8       30.07R
STAFFORD*      CLOUDY    50  43  76 SE9       30.11R
WARRENTON      CLOUDY    52  40  64 SE8       30.05S
CULPEPER*      CLOUDY    52  44  72 SE3       30.06S
MANASSAS*      CLOUDY    50  41  71 SE13      30.07R
LEESBURG*      CLOUDY    54  43  66 SE8       30.06S
WINCHESTER     CLOUDY    50  36  57 SE9       30.01F
FRONT ROYAL*   CLOUDY    52  36  54 S7        30.00S
LURAY*         CLOUDY    52  41  66 S6        30.01S
$$

VAZ048-049-060>072-079>083-310200-
CENTRAL AND SOUTH CENTRAL VIRGINIA

CITY           SKY/WX    TMP DP  RH WIND       PRES   REMARKS
RICHMOND       CLOUDY    49  42  77 E9        30.07R
CHESTERFIELD*  CLOUDY    50  30  46 E6        30.08R
PETERSBURG*    CLOUDY    49  42  75 E6        30.06R
HANOVER        CLOUDY    51  40  65 VRB7      30.09R
TAPPAHANNOCK*  CLOUDY    49  34  56 E10       30.09S
QUINTON*       MOCLDY    47  42  83 E9G22     30.07S
CHARLOTTSVILLE CLOUDY    53  40  61 CALM      30.04R
GORDONSVILLE*  CLOUDY    53  42  67 CALM      30.04R
ORANGE*        CLOUDY    52  41  66 CALM      30.05S
LOUISA*        CLOUDY    57  46  67 SE5       30.03S
BUMPASS*       CLOUDY    52  44  74 E7        30.05S
FARMVILLE*     CLOUDY    57  46  65 NE3       30.01R
CREWE*         CLOUDY    56  46  69 E6        30.02R
FORT PICKETT*  CLOUDY    56  41  57 E7        30.02S
CHASE CITY*    CLOUDY    60  42  52 CALM      30.00R
CLARKSVILLE*   CLOUDY    61  45  55 SE5       29.98F
SOUTH HILL*    MOCLDY    58  46  63 CALM      30.07R
LAWRENCEVILLE* CLOUDY    58  44  58 SE9       30.02S
EMPORIA*       MOCLDY    55  43  62 E14       30.04S
$$

VAZ088>098-310200-
SOUTHEAST VIRGINIA

CITY           SKY/WX    TMP DP  RH WIND       PRES   REMARKS
NORFOLK        CLOUDY    51  41  68 SE7       30.09S
VIRGINIA BEACH CLOUDY    50  40  68 E9        30.09R
NORFOLK NAVAL  MOCLDY    51  40  65 SE9       30.10S
WEST POINT*    CLOUDY    48  40  73 E8        30.11R
SALUDA*        CLOUDY    47  41  79 SE8G16    30.10R
NEWPORT NEWS   CLOUDY    49  42  77 E10       30.09S
LANGLEY AFB    CLOUDY    50  44  79 E13       30.09S
FORT EUSTIS    PTCLDY    49  41  74 SE7       30.06S
WILLIAMSBURG*  CLOUDY    50  45  81 CALM      30.09S
HR EXEC AP*    CLOUDY    52  39  62 SE9       30.07S
FRANKLIN*      CLEAR     50  41  71 E6        30.07S
US460-WAKEFLD  CLEAR     49  43  80 VRB6      30.07S
$$

VAZ020-022-025-037-045-310200-
WEST CENTRAL AND SOUTHWEST VIRGINIA

CITY           SKY/WX    TMP DP  RH WIND       PRES   REMARKS
STAUNTON*      CLOUDY    50  38  63 SE6       30.04S
WAYNESBORO*    CLOUDY    49  40  70 CALM      30.03R
HOT SPRINGS VA CLOUDY    43  41  93 S9        30.00R
LYNCHBURG      CLOUDY    55  43  63 NE7       30.02R
DANVILLE       CLOUDY    60  48  64 CALM      29.98R
SOUTH BOSTON*  CLOUDY    62  43  50 SE5       29.99S
MARTINSVILLE   CLOUDY    53  49  87 CALM      30.00F
ROANOKE        LGT RAIN  53  45  74 E5        30.01R
BLACKSBURG     CLOUDY    50  47  87 N3        30.01S
DUBLIN*        RAIN      51  48  90 NE3       29.98F
MARION*        CLOUDY    53  51  92 NE9G17    29.95F
HILLSVILLE*    LGT RAIN  48  48  97 CALM      29.96S
RICHLANDS*     FAIR      58  50  76 SE10G20   29.85F
WISE*          CLOUDY    63  50  63 S14G22    29.82F
ABINGDON*      PTCLDY    65  52  64 S7        29.85S
$$

MDZ021>025-VAZ099-100-310200-
SOUTHERN MARYLAND AND THE DELMARVA PENINSULA

CITY           SKY/WX    TMP DP  RH WIND       PRES   REMARKS
PATUXENT RIVER CLOUDY    47  40  76 SE9       30.12R
BAY BRIDGE APT CLOUDY    48  37  66 SE8       30.10R
LEONARDTOWN    CLOUDY    46  37  71 SE10      30.12R
DOVER          CLOUDY    44  38  81 SE14      30.11F
GEORGETOWN     CLOUDY    45  34  65 SE9       30.13F
EASTON         MOCLDY    48  36  61 SE10G17   30.13F
CAMBRIDGE      CLOUDY    46  36  66 SE10      30.11R
SALISBURY      CLOUDY    45  35  68 E12       30.12F
OCEAN CITY     CLOUDY    44  36  73 SE10      30.14S
WALLOPS ISLAND CLOUDY    46  38  73 E13       30.12F
ACCOMACK*      CLOUDY    47  38  72 SE12G18   30.11S
$$

NCZ012>017-030>032-310200-
NORTH CENTRAL AND EASTERN NORTH CAROLINA

CITY           SKY/WX    TMP DP  RH WIND       PRES   REMARKS
ROANOKE RAPIDS FAIR      55  46  71 E3        30.03R
RALEIGH        MOCLDY    63  49  60 SE10      29.99S
ELIZABETH CITY CLOUDY    54  46  74 E7        30.09R
AHOSKIE*         N/A     54  43  66 SE7       30.05F
EDENTON*       CLOUDY    56  49  80 E7        30.08S
CURRITUCK*     CLOUDY    53  46  75 E5        30.10R
KILL DEVIL HLS NOT AVBL
MANTEO         CLEAR     54  48  81 E10       30.08S
CAPE HATTERAS  CLOUDY    67  53  61 S13G23    30.07S
TARBORO*       NOT AVBL
GOLDSBORO      PTCLDY    65  56  74 SE9       30.00F
WASHINGTON     CLOUDY    59  50  72 SE7       30.07R
GREENVILLE     MOCLDY    63  50  63 SE10G17   30.06F
NEW BERN       CLEAR     57  53  86 E6        30.07S
WILMINGTON     MOCLDY    66  59  78 SE9       30.01F
$$

VAZ048-310200-
ELSEWHERE

CITY           SKY/WX    TMP DP  RH WIND       PRES   REMARKS
HARRISBURG PA  CLOUDY    45  34  65 SE13      30.06F
BALTIMORE      CLOUDY    49  40  71 E8        30.08R
ANNAPOLIS      CLOUDY    50  42  74 SE3       30.09S
ANDREWS AFB    CLOUDY    48  37  65 S10       30.07R
PHILADELPHIA   CLOUDY    46  32  58 SE7       30.13F
HENDERSON NC   PTCLDY    58  44  58 SE6       29.99S
GREENSBORO     LGT RAIN  61  50  67 SE9       29.95S
ROCKY MOUNT    PTCLDY    62  50  64 VRB5      30.01F
$$

VAZ100-310200-
MARINE

STATION/POSITION TIME  TEMP    WIND        PRES    WAVE   SWELL
                       AIR SEA DIR/SP/G            HT/PER HT/PER
                 (UTC) (F)     (DEG/KT/KT) (MB)    (FT/S) (FT/S)
CAPE MAY NJ      0048   43 46  130/ 12/ 17 1019.8F
LEWES DE         0036   44 47  150/  7/ 11 1020.5F
OCEAN-CITY-INLET 0036   44 46  140/  7/ 11 1021.2R
WACHAPREAGUE VA  0048   47 55  110/ 12/ 15 1019.5R
THOMAS POINT MD  0100   48 47  180/  9/ 10   N/A
GOOSES REEF MD   0050   48     160/ 12/ 14 1019.8R
COVE POINT MD    0048   47     170/ 14/ 17 1020.2R
SOLOMONS ISLAND  0036   47 49  140/ 14/ 18   N/A
BISHOPS HEAD MD  0048   47 54  110/ 14/ 18 1019.5F
PINEY POINT MD   0048          150/ 19/ 20   N/A
POTOMAC MD       0050   47     150/ 16/ 19 1018.4S
CAMBRIDGE MD     0048   46 51  120/ 11/ 15 1018.6F
LEWISETTA VA     0048   47 54  160/ 11/ 14 1019.0R
RAPPAHANNOCK LGT 0048          110/ 14/ 16 1020.0S
STINGRAY PT      0050   48     140/ 16/ 17 1019.1F
YORK RVR RNG VA  0048   49     130/ 17/ 20 1018.3S
YORKTOWN VA      0048   49 52  120/ 16/ 19 1018.7S
JAMESTOWN VA     0050   50     100/ 12/ 16   N/A
DOMINION TERM VA 0048   51     110/  8/ 12 1018.8S
KIPTOPEKE VA     0048      52  110/ 11/ 17   N/A
CHES BAY BRIDGE  0048   50 51  120/ 10/ 15 1019.0R
CAPE HENRY VA    0048   49     110/ 15/ 18   N/A
WILLOUBY STN VA  0048   50     110/ 12/ 13 1019.6F
S CRANEY ISL VA  0048   51     120/ 10/ 12 1018.6S
CAPE HENRY BUOY  0042      51                N/A     4/ 8   2/13
CAPE CHARLES BUO 0051      49                N/A     5/10   2/11
OFFSHORE WE BUOY 0051      48                N/A     5/ 8   2/11
64NM E OF VA BCH 0050   51 48   80/ 14/ 16 1019.1F   5/ 9   5/ 9
DUCK PIER NC     0048   51 51   80/ 16/ 18 1017.8F
44100 DUCK FRF   0035      51                N/A     5/ 9   2/11
44056 DUCK FRF   0030      51                N/A     5/ 8   2/11
OREGON INLET NC  0048           70/  9/ 12 1018.1F
HATTERAS NC      0048   66 61  150/  9/ 14 1017.7F
DIAMOND SHLS NC  0050   66 76  140/ 16/ 19 1018.5F   4/10   3/10
CAPE LOOKOUT NC  0000   65     140/ 13/ 14 1017.5F
$$




USA.gov is the U.S. government's official web portal to all federal, state and local government web resources and services.